Minot, ND

6:28 AM CDT on July 25, 2017 (GMT -0500)
Minot International

Weather History for KMOT - November, 2010

Change the Weather History Date:

Thursday, November 25, 2010

  Actual Average Record
Temperature  
Mean Temperature 8 °F 23 °F  
Max Temperature 20 °F 31 °F 67 °F (1914)
Min Temperature -4 °F 15 °F -12 °F (1996)
Degree Days  
Heating Degree Days 57 42  
Month to date heating degree days 888 881  
Since 1 July heating degree days 1643 1841  
Moisture  
Dew Point 0 °F    
Average Humidity 72    
Maximum Humidity 86    
Minimum Humidity 58    
Precipitation  
Precipitation T in 0.02 in 0.70 in (1908)
Month to date precipitation 0.22 0.67  
Year to date precipitation 20.98 16.73  
Sea Level Pressure  
Sea Level Pressure 29.72 in    
Wind  
Wind Speed 18 mph (West)    
Max Wind Speed 30 mph    
Max Gust Speed 36 mph    
Visibility 4 miles    
Events Snow    
T = Trace of Precipitation, MM = Missing Value Source: NWS Daily Summary

Daily Weather History Graph

Daily Weather History Graph

Search for Another Location

Airport or City:

Trip Planner

Search our weather history database for the weather conditions in past years. The results will help you decide how hot, cold, wet, or windy it might be!

Date:

Astronomy

Nov. 25, 2010 Rise Set
Actual Time 8:06 AM CST 4:56 PM CST
Civil Twilight 7:31 AM CST 5:32 PM CST
Nautical Twilight 6:53 AM CST 6:10 PM CST
Astronomical Twilight 6:15 AM CST 6:48 PM CST
Moon 8:58 PM CST 11:38 AM CST
Length of Visible Light 10h 00m
Length of Day
8h 49m
Waning Gibbous, 82% of the Moon is Illuminated
Nov 25
Waning Gibbous
Nov 28
Last Quarter
Dec 5
New
Dec 13
First Quarter
Dec 21
Full

Hourly Weather History & Observations

Time (CST) Temp. Windchill Dew Point Humidity Pressure Visibility Wind Dir Wind Speed Gust Speed Precip Events Conditions
12:54 AM -4.0 °F -26.4 °F -11.0 °F 72% 29.77 in 10.0 mi WSW 18.4 mph - N/A   Scattered Clouds
1:54 AM -2.0 °F -24.4 °F -9.9 °F 69% 29.75 in 10.0 mi WSW 19.6 mph 27.6 mph N/A   Overcast
2:54 AM -2.0 °F -23.3 °F -9.9 °F 69% 29.74 in 9.0 mi WSW 17.3 mph - N/A   Overcast
3:37 AM -0.4 °F -22.8 °F -7.6 °F 72% 29.61 in 1.8 mi West 20.7 mph - 0.00 in Snow Light Snow
3:51 AM 1.4 °F -21.0 °F -5.8 °F 72% 29.61 in 2.0 mi West 21.9 mph 29.9 mph 0.00 in Snow Light Snow
3:54 AM 1.0 °F -20.9 °F -6.0 °F 72% 29.73 in 2.5 mi West 20.7 mph 29.9 mph 0.00 in Snow Light Snow
4:46 AM 1.4 °F -20.5 °F -5.8 °F 72% 29.61 in 1.5 mi West 20.7 mph - 0.00 in Snow Light Snow
4:54 AM 1.0 °F -20.9 °F -5.1 °F 75% 29.74 in 1.2 mi West 20.7 mph - 0.00 in Snow Light Snow
5:08 AM 1.4 °F -20.5 °F -5.8 °F 72% 29.61 in 2.5 mi West 20.7 mph 29.9 mph 0.00 in Snow Light Snow
5:40 AM 3.2 °F -18.6 °F -2.2 °F 78% 29.62 in 1.2 mi West 21.9 mph 29.9 mph 0.00 in Snow Light Snow
5:48 AM 3.2 °F -19.0 °F -2.2 °F 78% 29.62 in 0.8 mi West 23.0 mph - 0.00 in Snow Light Snow
5:54 AM 3.0 °F -19.3 °F -2.0 °F 80% 29.75 in 0.8 mi West 23.0 mph - 0.00 in Snow Light Snow
6:08 AM 3.2 °F -18.6 °F -2.2 °F 78% 29.62 in 1.0 mi West 21.9 mph - 0.00 in Snow Light Snow
6:30 AM 3.2 °F -19.0 °F -0.4 °F 85% 29.62 in 0.8 mi West 23.0 mph 31.1 mph 0.00 in Snow Light Snow
6:54 AM 3.9 °F -19.4 °F -0.9 °F 80% - 0.5 mi West 26.5 mph 34.5 mph 0.00 in Snow Snow
7:09 AM 3.2 °F -19.5 °F -0.4 °F 85% - 0.8 mi West 24.2 mph 31.1 mph 0.00 in Snow Light Snow
7:28 AM 3.2 °F -19.5 °F -0.4 °F 85% - 0.8 mi West 24.2 mph 33.4 mph 0.00 in Snow Light Snow
7:54 AM 5.0 °F -17.9 °F -0.9 °F 76% 29.77 in 1.0 mi West 26.5 mph 34.5 mph 0.00 in Snow Light Snow
8:07 AM 5.0 °F -17.9 °F -0.4 °F 78% 29.66 in 0.8 mi West 26.5 mph 33.4 mph 0.00 in Snow Light Snow
8:54 AM 5.0 °F -17.5 °F -0.9 °F 76% 29.81 in 0.5 mi West 25.3 mph 34.5 mph 0.00 in Snow Snow
9:51 AM 5.0 °F -17.1 °F -0.4 °F 78% 29.68 in 1.0 mi West 24.2 mph 32.2 mph 0.00 in Snow Light Snow
9:54 AM 5.0 °F -17.1 °F -0.9 °F 76% 29.81 in 1.0 mi West 24.2 mph 32.2 mph 0.00 in Snow Light Snow
10:07 AM 6.8 °F -14.7 °F -0.4 °F 72% 29.69 in 0.8 mi West 24.2 mph 32.2 mph 0.00 in Snow Light Snow
10:19 AM 6.8 °F -15.1 °F -0.4 °F 72% 29.69 in 1.0 mi West 25.3 mph 33.4 mph 0.00 in Snow Light Snow
10:38 AM 6.8 °F -14.3 °F -0.4 °F 72% 29.69 in 1.5 mi West 23.0 mph 29.9 mph 0.00 in Snow Light Snow
10:54 AM 7.0 °F -14.9 °F 1.0 °F 77% 29.81 in 1.2 mi West 25.3 mph 29.9 mph 0.00 in Snow Light Snow
11:03 AM 8.6 °F -11.4 °F 1.4 °F 73% 29.70 in 1.0 mi West 21.9 mph - 0.00 in Snow Light Snow
11:20 AM 8.6 °F -11.9 °F 1.4 °F 73% 29.70 in 3.0 mi West 23.0 mph 29.9 mph 0.00 in   Haze
11:54 AM 10.0 °F -8.6 °F 1.9 °F 70% 29.82 in 3.0 mi West 19.6 mph 27.6 mph 0.00 in   Haze
12:12 PM 8.6 °F -12.7 °F 1.4 °F 73% 29.69 in 2.0 mi West 25.3 mph 29.9 mph N/A   Haze
12:20 PM 8.6 °F -12.7 °F 1.4 °F 73% 29.69 in 1.2 mi West 25.3 mph 32.2 mph N/A   Haze
12:50 PM 8.6 °F -11.0 °F 1.4 °F 73% 29.69 in 10.0 mi West 20.7 mph 33.4 mph N/A   Overcast
12:54 PM 9.0 °F -11.8 °F 1.0 °F 70% 29.83 in 10.0 mi West 24.2 mph 29.9 mph N/A   Overcast
1:54 PM 9.0 °F -11.0 °F -0.9 °F 64% 29.82 in 10.0 mi West 21.9 mph 29.9 mph N/A   Mostly Cloudy
2:54 PM 10.0 °F -8.6 °F -0.9 °F 61% 29.82 in 10.0 mi WSW 19.6 mph - N/A   Scattered Clouds
3:54 PM 10.0 °F -8.1 °F -2.0 °F 58% 29.81 in 10.0 mi West 18.4 mph - N/A   Clear
4:54 PM 8.1 °F -6.2 °F -2.9 °F 61% 29.83 in 10.0 mi WSW 10.4 mph - N/A   Clear
5:54 PM 6.1 °F -9.5 °F -5.1 °F 60% 29.82 in 10.0 mi WSW 11.5 mph - N/A   Clear
6:54 PM 5.0 °F -5.6 °F -4.0 °F 66% 29.82 in 10.0 mi WSW 5.8 mph - N/A   Clear
7:54 PM 10.0 °F -5.2 °F -0.0 °F 64% 29.80 in 10.0 mi WSW 12.7 mph - N/A   Scattered Clouds
8:54 PM 14.0 °F -0.2 °F 3.9 °F 64% 29.78 in 10.0 mi WSW 12.7 mph - N/A   Overcast
9:46 PM 12.2 °F 0.7 °F 6.8 °F 79% 29.66 in 2.0 mi SW 8.1 mph - 0.00 in Snow Light Snow
9:54 PM 14.0 °F 3.9 °F 9.0 °F 80% 29.78 in 1.5 mi WSW 6.9 mph - 0.00 in Snow Light Snow
10:09 PM 15.8 °F 7.2 °F 10.4 °F 79% 29.65 in 2.0 mi WSW 5.8 mph - 0.00 in Snow Light Snow
10:19 PM 15.8 °F 7.2 °F 10.4 °F 79% 29.65 in 3.0 mi SW 5.8 mph - 0.00 in Snow Light Snow
10:54 PM 17.1 °F 5.8 °F 12.0 °F 81% 29.75 in 10.0 mi SW 9.2 mph - 0.00 in   Overcast
11:19 PM 17.6 °F 6.4 °F 12.2 °F 79% 29.63 in 6.0 mi SW 9.2 mph - N/A   Overcast
11:27 PM 17.6 °F 5.0 °F 12.2 °F 79% 29.63 in 7.0 mi SW 11.5 mph - N/A   Overcast
11:34 PM 17.6 °F 5.7 °F 14.0 °F 86% 29.63 in 8.0 mi SW 10.4 mph - N/A   Overcast
11:54 PM 19.9 °F 9.3 °F 16.0 °F 85% 29.73 in 8.0 mi WSW 9.2 mph - N/A   Overcast